| time (UTC) | temp C | wind direction | speed KPH | gust KPH | rain 1hr cm | rain 24hr cm | rain mn cm | humidity % | barometer mb |
| 20260507014522 | 12 | 69 | 0.0 | 0.0 | 0.00 | 0.00 | 0.00 | 87 | 1019.1 |
| 20260507013024 | 12 | 69 | 0.0 | 0.0 | 0.00 | 0.00 | 0.00 | 87 | 1019.0 |
| 20260507011534 | 12 | 69 | 0.0 | 0.0 | 0.00 | 0.00 | 0.00 | 87 | 1019.1 |
| 20260507010024 | 12 | 69 | 0.0 | 0.0 | 0.00 | 0.00 | 0.00 | 85 | 1019.2 |
| 20260507004522 | 13 | 18 | 0.0 | 1.6 | 0.00 | 0.00 | 0.00 | 85 | 1019.1 |
| 20260507003022 | 13 | 321 | 0.0 | 0.0 | 0.00 | 0.00 | 0.00 | 83 | 1019.1 |
| 20260507001545 | 13 | 322 | 0.0 | 0.0 | 0.00 | 0.00 | 0.00 | 82 | 1019.1 |
| 20260507000023 | 13 | 304 | 0.0 | 0.0 | 0.00 | 0.00 | 0.00 | 82 | 1019.0 |
| 20260506234522 | 13 | 354 | 0.0 | 0.0 | 0.00 | 0.00 | 0.00 | 80 | 1019.0 |
| 20260506233022 | 13 | 313 | 0.0 | 0.0 | 0.00 | 0.00 | 0.00 | 81 | 1019.0 |
| 20260506231522 | 13 | 312 | 0.0 | 0.0 | 0.00 | 0.00 | 0.00 | 81 | 1019.1 |
| 20260506230021 | 13 | 1 | 0.0 | 0.0 | 0.00 | 0.00 | 0.00 | 82 | 1019.1 |
| 20260506224520 | 13 | 321 | 0.0 | 1.6 | 0.00 | 0.00 | 0.00 | 80 | 1019.2 |
| 20260506223027 | 13 | 194 | 0.0 | 0.0 | 0.00 | 0.00 | 0.00 | 80 | 1019.2 |
| 20260506221519 | 13 | 230 | 0.0 | 1.6 | 0.00 | 0.00 | 0.00 | 82 | 1019.2 |
| 20260506220017 | 13 | 50 | 0.0 | 0.0 | 0.00 | 0.00 | 0.00 | 81 | 1019.3 |
| 20260506214518 | 13 | 298 | 0.0 | 0.0 | 0.00 | 0.00 | 0.00 | 81 | 1019.3 |
| 20260506213018 | 13 | 33 | 0.0 | 8.0 | 0.00 | 0.00 | 0.00 | 81 | 1019.4 |
| 20260506211520 | 13 | 305 | 0.0 | 3.2 | 0.00 | 0.00 | 0.00 | 81 | 1019.4 |
| 20260506210031 | 13 | 231 | 0.0 | 0.0 | 0.00 | 0.00 | 0.00 | 80 | 1019.3 |
| 20260506204515 | 13 | 1 | 0.0 | 1.6 | 0.00 | 0.00 | 0.00 | 81 | 1019.3 |
| 20260506203013 | 13 | 350 | 0.0 | 0.0 | 0.00 | 0.00 | 0.00 | 82 | 1019.1 |
| 20260506201519 | 12 | 317 | 0.0 | 0.0 | 0.00 | 0.00 | 0.00 | 84 | 1019.2 |
| 20260506200010 | 12 | 11 | 0.0 | 3.2 | 0.00 | 0.00 | 0.00 | 83 | 1019.1 |
| 20260506194511 | 12 | 332 | 0.0 | 6.4 | 0.00 | 0.00 | 0.00 | 83 | 1019.0 |
| 20260506193020 | 12 | 322 | 0.0 | 8.0 | 0.00 | 0.00 | 0.00 | 83 | 1019.0 |
| 20260506191511 | 11 | 358 | 0.0 | 8.0 | 0.00 | 0.00 | 0.00 | 84 | 1019.0 |
| 20260506190011 | 11 | 216 | 0.0 | 8.0 | 0.00 | 0.00 | 0.00 | 85 | 1018.9 |
| 20260506184505 | 11 | 341 | 0.0 | 11.3 | 0.00 | 0.00 | 0.00 | 87 | 1018.9 |
| 20260506183004 | 11 | 302 | 0.0 | 6.4 | 0.00 | 0.00 | 0.00 | 89 | 1018.9 |
| 20260506181502 | 11 | 266 | 0.0 | 1.6 | 0.00 | 0.00 | 0.00 | 89 | 1018.8 |
| 20260506180002 | 11 | 359 | 0.0 | 1.6 | 0.00 | 0.00 | 0.00 | 90 | 1018.7 |
| 20260506174507 | 11 | 358 | 0.0 | 11.3 | 0.00 | 0.00 | 0.00 | 90 | 1018.7 |
| 20260506173007 | 11 | 301 | 0.0 | 1.6 | 0.00 | 0.00 | 0.00 | 92 | 1018.4 |
| 20260506171505 | 10 | 23 | 0.0 | 0.0 | 0.00 | 0.00 | 0.00 | 93 | 1018.5 |
| 20260506170005 | 10 | 264 | 0.0 | 1.6 | 0.00 | 0.00 | 0.00 | 93 | 1018.7 |
| 20260506164515 | 10 | 189 | 0.0 | 3.2 | 0.00 | 0.00 | 0.00 | 94 | 1018.6 |
| 20260506163006 | 10 | 46 | 0.0 | 6.4 | 0.00 | 0.00 | 0.00 | 94 | 1018.7 |
| 20260506161501 | 10 | 359 | 0.0 | 1.6 | 0.00 | 0.00 | 0.00 | 95 | 1018.4 |
| 20260506160127 | 10 | 325 | 0.0 | 3.2 | 0.00 | 0.00 | 0.00 | 95 | 1018.3 |
| 20260506154600 | 10 | 305 | 0.0 | 0.0 | 0.00 | 0.00 | 0.00 | 95 | 1017.9 |
| 20260506153058 | 10 | 14 | 0.0 | 1.6 | 0.00 | 0.00 | 0.00 | 95 | 1018.1 |
| 20260506151604 | 10 | 18 | 0.0 | 6.4 | 0.00 | 0.00 | 0.00 | 95 | 1018.2 |
| 20260506150107 | 10 | 7 | 0.0 | 0.0 | 0.00 | 0.00 | 0.00 | 96 | 1018.2 |
| 20260506144557 | 10 | 314 | 0.0 | 1.6 | 0.00 | 0.00 | 0.00 | 96 | 1018.4 |
| 20260506143057 | 10 | 317 | 0.0 | 6.4 | 0.00 | 0.00 | 0.00 | 96 | 1017.7 |
| 20260506141556 | 10 | 291 | 0.0 | 0.0 | 0.00 | 0.00 | 0.00 | 96 | 1018.0 |
| 20260506140055 | 10 | 292 | 0.0 | 0.0 | 0.00 | 0.00 | 0.00 | 95 | 1018.1 |
| 20260506134557 | 10 | 303 | 0.0 | 1.6 | 0.00 | 0.00 | 0.00 | 95 | 1017.8 |
| 20260506133109 | 10 | 323 | 0.0 | 1.6 | 0.00 | 0.00 | 0.00 | 95 | 1017.8 |
| 20260506131614 | 10 | 36 | 0.0 | 0.0 | 0.00 | 0.00 | 0.00 | 95 | 1017.7 |
| 20260506130054 | 10 | 1 | 0.0 | 1.6 | 0.00 | 0.00 | 0.00 | 95 | 1017.7 |
| 20260506124552 | 10 | 336 | 0.0 | 0.0 | 0.00 | 0.00 | 0.00 | 95 | 1017.4 |
| 20260506123050 | 10 | 351 | 0.0 | 0.0 | 0.00 | 0.00 | 0.00 | 95 | 1017.1 |
| 20260506121555 | 10 | 342 | 0.0 | 1.6 | 0.00 | 0.00 | 0.00 | 94 | 1017.2 |
| 20260506120059 | 10 | 300 | 0.0 | 0.0 | 0.00 | 0.00 | 0.00 | 94 | 1017.1 |
| 20260506114548 | 10 | 305 | 0.0 | 0.0 | 0.00 | 0.00 | 0.00 | 94 | 1017.0 |
| 20260506113046 | 10 | 67 | 0.0 | 3.2 | 0.00 | 0.00 | 0.00 | 94 | 1016.9 |
| 20260506111547 | 10 | 15 | 0.0 | 0.0 | 0.00 | 0.00 | 0.00 | 94 | 1016.9 |
| 20260506110054 | 10 | 37 | 0.0 | 6.4 | 0.00 | 0.00 | 0.00 | 94 | 1016.7 |
| 20260506104557 | 10 | 319 | 0.0 | 4.8 | 0.00 | 0.00 | 0.00 | 94 | 1016.7 |
| 20260506103047 | 10 | 65 | 0.0 | 3.2 | 0.00 | 0.00 | 0.00 | 94 | 1016.7 |
| 20260506101543 | 10 | 4 | 0.0 | 0.0 | 0.00 | 0.00 | 0.00 | 94 | 1016.6 |
| 20260506100052 | 10 | 38 | 0.0 | 0.0 | 0.00 | 0.00 | 0.00 | 94 | 1016.5 |
| 20260506094543 | 10 | 39 | 0.0 | 0.0 | 0.00 | 0.00 | 0.00 | 94 | 1016.5 |
| 20260506093041 | 10 | 39 | 0.0 | 0.0 | 0.00 | 0.00 | 0.00 | 93 | 1016.3 |
| 20260506091539 | 10 | 300 | 0.0 | 3.2 | 0.00 | 0.00 | 0.00 | 93 | 1016.2 |
| 20260506090041 | 10 | 314 | 0.0 | 1.6 | 0.00 | 0.00 | 0.00 | 93 | 1016.0 |
| 20260506084611 | 10 | 15 | 0.0 | 0.0 | 0.00 | 0.00 | 0.00 | 92 | 1016.0 |
| 20260506083039 | 10 | 305 | 0.0 | 0.0 | 0.00 | 0.00 | 0.00 | 92 | 1015.9 |
| 20260506081548 | 10 | 314 | 0.0 | 0.0 | 0.00 | 0.00 | 0.00 | 91 | 1015.8 |
| 20260506073031 | 11 | 305 | 0.0 | 0.0 | 0.00 | 0.00 | 0.00 | 90 | 1015.5 |
| 20260506071532 | 11 | 323 | 0.0 | 0.0 | 0.00 | 0.00 | 0.00 | 89 | 1015.4 |
| 20260506061525 | 12 | 295 | 0.0 | 0.0 | 0.00 | 0.00 | 0.00 | 87 | 1015.0 |
| 20260506044530 | 13 | 31 | 0.0 | 0.0 | 0.00 | 0.00 | 0.00 | 83 | 1014.3 |
| 20260506043026 | 14 | 31 | 0.0 | 0.0 | 0.00 | 0.00 | 0.00 | 83 | 1014.2 |
| 20260506041528 | 14 | 27 | 0.0 | 0.0 | 0.00 | 0.00 | 0.00 | 83 | 1014.1 |
| 20260506040032 | 15 | 27 | 0.0 | 0.0 | 0.00 | 0.00 | 0.00 | 82 | 1014.0 |
| 20260506034525 | 15 | 27 | 0.0 | 0.0 | 0.00 | 0.00 | 0.00 | 81 | 1013.9 |
| 20260506033025 | 15 | 27 | 0.0 | 0.0 | 0.00 | 0.00 | 0.00 | 80 | 1013.7 |
| 20260506031524 | 16 | 27 | 0.0 | 0.0 | 0.00 | 0.00 | 0.00 | 78 | 1013.6 |
| 20260506030023 | 16 | 345 | 0.0 | 0.0 | 0.00 | 0.00 | 0.00 | 76 | 1013.6 |
| 20260506024525 | 17 | 338 | 0.0 | 0.0 | 0.00 | 0.00 | 0.00 | 75 | 1013.5 |
| 20260506023043 | 17 | 55 | 0.0 | 0.0 | 0.00 | 0.00 | 0.00 | 74 | 1013.4 |
| 20260506021534 | 17 | 55 | 0.0 | 0.0 | 0.00 | 0.00 | 0.00 | 72 | 1013.4 |
| 20260506020027 | 17 | 261 | 0.0 | 0.0 | 0.00 | 0.00 | 0.00 | 71 | 1013.4 |